Weather History for KCUT - August, 2014

Change the Weather History Date:

Thursday, August 7, 2014

  Actual Average Record
Temperature  
Mean Temperature 66 °F 65 °F  
Max Temperature 78 °F 79 °F 95 °F (1975)
Min Temperature 54 °F 52 °F 37 °F (1953)
Degree Days  
Heating Degree Days 0 2  
Month to date heating degree days 3 14  
Since 1 June heating degree days 355 295  
Since 1 July heating degree days 82 75  
Cooling Degree Days 1 2  
Month to date cooling degree days 10 14  
Year to date cooling degree days 100 121  
Since 1 June cooling degree days 96 120  
Growing Degree Days 14 (Base 50)    
Moisture  
Dew Point 56 °F    
Average Humidity 71    
Maximum Humidity 100    
Minimum Humidity 41    
Precipitation  
Precipitation T in 0.07 in 1.90 in (1999)
Month to date precipitation 1.46 0.46  
Year to date precipitation 14.07 13.23  
Sea Level Pressure  
Sea Level Pressure 30.01 in    
Wind  
Wind Speed 6 mph (NNE)    
Max Wind Speed 15 mph    
Max Gust Speed 20 mph    
Visibility 9 miles    
Events Thunderstorm    
T = Trace of Precipitation, MM = Missing Value Source: NWS Daily Summary

Daily Weather History Graph

Daily Weather History Graph

Search for Another Location

Airport or City:

Trip Planner

Search our weather history database for the weather conditions in past years. The results will help you decide how hot, cold, wet, or windy it might be!

Date:

Astronomy

Aug. 07, 2014 Rise Set
Actual Time 5:49 AM MDT 8:09 PM MDT
Civil Twilight 5:17 AM MDT 8:41 PM MDT
Nautical Twilight 4:38 AM MDT 9:21 PM MDT
Astronomical Twilight 3:53 AM MDT 10:05 PM MDT
Moon 5:29 PM MDT (8/7) 2:20 AM MDT (8/7)
Length of Visible Light 15h 23m
Length of Day
14h 19m
Waxing Gibbous, 87% of the Moon is Illuminated
Aug 7
Waxing Gibbous
Aug 10
Full
Aug 17
Last Quarter
Aug 25
New
Sep 2
First Quarter

Hourly Weather History & Observations

Time (MDT) Temp. Dew Point Humidity Pressure Visibility Wind Dir Wind Speed Gust Speed Precip Events Conditions
12:19 AM 55.0 °F 54.0 °F 96% 30.16 in 1.8 mi SSW 3.5 mph - N/A   Clear
12:38 AM 55.9 °F 55.0 °F 97% 30.16 in 3.0 mi West 4.6 mph - N/A   Clear
12:53 AM 55.9 °F 55.0 °F 97% 30.01 in 9.0 mi Calm Calm - N/A   Clear
1:02 AM 55.0 °F 54.0 °F 96% 30.14 in 1.8 mi NE 3.5 mph - N/A   Clear
1:17 AM 55.0 °F 54.0 °F 96% 30.14 in 3.0 mi NNW 4.6 mph - N/A   Clear
1:53 AM 55.9 °F 54.0 °F 93% 30.01 in 10.0 mi West 5.8 mph - N/A   Mostly Cloudy
2:53 AM 57.0 °F 55.0 °F 93% 30.00 in 10.0 mi West 3.5 mph - N/A   Overcast
3:53 AM 55.9 °F 54.0 °F 93% 29.99 in 10.0 mi WSW 5.8 mph - N/A   Partly Cloudy
4:53 AM 55.9 °F 55.0 °F 97% 30.00 in 8.0 mi West 6.9 mph - N/A   Clear
5:53 AM 55.0 °F 54.0 °F 96% 30.00 in 6.0 mi NW 4.6 mph - N/A   Clear
6:30 AM 54.0 °F 53.1 °F 97% 30.14 in 2.0 mi NW 3.5 mph - N/A   Clear
6:39 AM 55.9 °F 54.0 °F 93% 30.14 in 10.0 mi NW 4.6 mph - N/A   Clear
6:53 AM 59.0 °F 55.9 °F 90% 29.99 in 10.0 mi NW 4.6 mph - N/A   Clear
7:53 AM 64.0 °F 55.9 °F 75% 29.98 in 10.0 mi North 3.5 mph - N/A   Clear
8:53 AM 69.1 °F 57.9 °F 68% 29.97 in 10.0 mi Variable 3.5 mph - N/A   Clear
9:53 AM 72.0 °F 53.1 °F 51% 29.96 in 10.0 mi Variable 3.5 mph - N/A   Clear
10:53 AM 73.9 °F 50.0 °F 43% 29.95 in 10.0 mi Variable 3.5 mph - N/A   Mostly Cloudy
11:53 AM 73.9 °F 48.9 °F 41% 29.95 in 10.0 mi Variable 5.8 mph - N/A   Scattered Clouds
12:53 PM 75.0 °F 59.0 °F 57% 29.94 in 10.0 mi East 8.1 mph - N/A   Mostly Cloudy
1:53 PM 75.0 °F 59.0 °F 57% 29.93 in 10.0 mi Variable 3.5 mph - N/A   Scattered Clouds
2:10 PM 73.9 °F 57.9 °F 57% 30.11 in 10.0 mi South 5.8 mph - N/A Thunderstorm Mostly Cloudy
2:25 PM 73.9 °F 57.9 °F 57% 30.11 in 10.0 mi NE 4.6 mph - N/A   Mostly Cloudy
2:53 PM 72.0 °F 60.1 °F 66% 29.93 in 10.0 mi East 13.8 mph - N/A   Mostly Cloudy
3:53 PM 73.0 °F 57.9 °F 59% 29.92 in 10.0 mi ENE 8.1 mph - N/A   Mostly Cloudy
4:53 PM 72.0 °F 57.9 °F 61% 29.93 in 10.0 mi East 10.4 mph - N/A   Scattered Clouds
5:53 PM 70.0 °F 57.0 °F 63% 29.93 in 10.0 mi East 9.2 mph - N/A   Partly Cloudy
6:53 PM 70.0 °F 57.9 °F 65% 29.92 in 10.0 mi NE 8.1 mph - N/A   Clear
7:53 PM 66.0 °F 57.0 °F 73% 29.92 in 10.0 mi NE 5.8 mph - N/A   Clear
8:53 PM 64.0 °F 55.9 °F 75% 29.93 in 10.0 mi NE 5.8 mph - N/A   Clear
9:53 PM 64.0 °F 57.9 °F 80% 29.94 in 10.0 mi East 8.1 mph - N/A   Clear
10:53 PM 63.0 °F 59.0 °F 87% 29.94 in 10.0 mi ENE 8.1 mph - N/A   Mostly Cloudy
11:05 PM 63.0 °F 59.0 °F 87% 30.14 in 10.0 mi Calm Calm - N/A Thunderstorm Unknown
11:24 PM 63.0 °F 59.0 °F 87% 30.15 in 10.0 mi East 4.6 mph - N/A   Unknown
11:33 PM 63.0 °F 59.0 °F 87% 30.14 in 10.0 mi East 8.1 mph - N/A   Overcast
11:53 PM 63.0 °F 59.0 °F 87% 29.93 in 10.0 mi NE 4.6 mph - N/A   Scattered Clouds